Location: Des Moines
(41.6010°N, 93.6090°W)
Time: 16:08:11
(UTC-05:00)

Envisat - Visible Passes

Search period start: 20 October 2019 00:00
Search period end: 30 October 2019 00:00
Orbit: 764 x 766 km, 98.1° (Epoch: 20 October)

Date Brightness Start Highest point End Pass type
(mag) Time Alt. Az. Time Alt. Az. Time Alt. Az.
20 Oct 2.9 19:11:03 10° SSE 19:16:06 78° ENE 19:21:12 10° N visible
20 Oct 6.2 20:53:47 10° WSW 20:55:42 12° W 20:57:37 10° WNW visible
21 Oct 5.1 20:14:16 10° SSW 20:18:33 27° W 20:22:51 10° NW visible
22 Oct 6.6 06:45:42 10° ENE 06:47:25 12° E 06:49:08 10° ESE visible
22 Oct 3.6 19:36:36 10° S 19:41:37 60° W 19:46:39 10° NNW visible
23 Oct 3.0 18:59:52 10° SSE 19:04:52 62° ENE 19:09:53 10° N visible
23 Oct 5.9 20:41:19 10° SW 20:44:17 16° W 20:47:17 10° NW visible
24 Oct 4.7 20:02:37 10° SSW 20:07:12 34° W 20:11:50 10° NNW visible
25 Oct 3.2 19:25:16 10° S 19:30:20 77° WSW 19:35:26 10° NNW visible
26 Oct 3.2 18:48:47 10° SE 18:53:38 49° ENE 18:58:32 10° N visible
26 Oct 5.6 20:29:16 10° SW 20:32:55 20° W 20:36:35 10° NW visible
27 Oct 6.1 06:58:38 10° NE 07:01:51 17° E 07:05:01 10° SE visible
27 Oct 4.2 19:51:05 10° S 19:55:53 43° W 20:00:44 10° NNW visible
28 Oct 2.9 19:13:59 10° SSE 19:19:04 85° ENE 19:24:10 10° NNW visible
28 Oct 6.2 20:57:31 10° WSW 20:58:43 11° W 20:59:55 10° WNW visible
29 Oct 3.5 18:37:46 10° SE 18:42:26 39° ENE 18:47:08 10° N visible
29 Oct 5.2 20:17:26 10° SSW 20:21:33 25° W 20:25:42 10° NW visible
